Details for Lufthansa at EDDM




Go Back


Latest METAR
Local Time

EDDM 180620Z 29006KT 260V320 CAVOK 20/15 Q1021 NOSIG
18/08/2018, 08:26:56

Description
Results
Lufthansa Logo
Number of Pilots based at EDDM
0 Pilots Based here
Number of Lufthansa Flights Departed from EDDM
1 Flights Departed
Number of Lufthansa Flights Arrived at EDDM
2 Flights Arrived
Number of Lufthansa Schedules Departing from EDDM
547 Schedules
Number of Lufthansa Schedules Arriving at EDDM
527 Schedules
Number of Lufthansa Schedules Departing from EDDM availible today
302 Schedules Today
Number of Lufthansa Schedules Arriving at EDDM availible today
304 Schedules Today
Average Landing Rate at EDDM
-186 fpm
Lufthansa Average Landing Rate at EDDM
-386 fpm
Total Fuel Purchased at EDDM by Lufthansa
3,823.78 kgs / 8,429.91 lbs

Pilots Based at EDDM


Pilot ID
Pilot Name
Pilot Rank
No. of Flights
No. of Flying Hours
There are no pilots assigned to this hub!   Will you be the first?
Content